This is the latest recevied weather packets stored in our database for station/object KC7WRB. If no packets are shown the sender has not sent any weather packets the latest 1 day(s).
| Time | Temp. | Humidity | Pressure | Rain* | Wind** | Luminosity | Snow |
|---|---|---|---|---|---|---|---|
| 1778103780 | 22.78° C | 27% | 1021 hPa | 0 mm | - | 834 W/m² | - |
| 1778101657 | 22.22° C | 28% | 1020.9 hPa | 0 mm | - | 890 W/m² | - |
| 1778100746 | 22.22° C | 29% | 1021 hPa | 0 mm | - | 901 W/m² | - |
| 1778097710 | 21.11° C | 38% | 1021.4 hPa | 0 mm | - | 934 W/m² | - |
| 1778097407 | 21.11° C | 42% | 1021.4 hPa | 0 mm | - | 934 W/m² | - |
| 1778097103 | 21.11° C | 40% | 1021.4 hPa | 0 mm | - | 938 W/m² | - |
| 1778094677 | 20.56° C | 40% | 1022 hPa | 0 mm | - | 941 W/m² | - |
| 1778094375 | 20.56° C | 40% | 1021.8 hPa | 0 mm | - | 935 W/m² | - |
| 1778093162 | 20° C | 42% | 1022 hPa | 0 mm | - | 904 W/m² | - |
| 1778092252 | 19.44° C | 41% | 1022.1 hPa | 0 mm | - | 886 W/m² | - |
| 1778091041 | 18.89° C | 45% | 1022 hPa | 0 mm | - | 853 W/m² | - |
| 1778090131 | 18.89° C | 44% | 1022.1 hPa | 0 mm | - | 826 W/m² | - |
| 1778088314 | 17.78° C | 50% | 1022.1 hPa | 0 mm | - | 759 W/m² | - |
| 1778087405 | 17.22° C | 56% | 1021.8 hPa | 0 mm | - | 724 W/m² | - |
| 1778084978 | 15.56° C | 59% | 1021.6 hPa | 0 mm | - | 607 W/m² | - |
| 1778082861 | 13.33° C | 68% | 1021.4 hPa | 0 mm | - | 483 W/m² | - |
| 1778080835 | 12.78° C | 70% | 1021.3 hPa | 0 mm | - | 355 W/m² | - |
| 1778079926 | 11.67° C | 76% | 1021.2 hPa | 0 mm | - | 297 W/m² | - |
| 1778079623 | 11.11° C | 75% | 1021 hPa | 0 mm | - | 278 W/m² | - |
| 1778077504 | 8.89° C | 86% | 1020.8 hPa | 0 mm | - | 44 W/m² | - |
| 1778077202 | 8.89° C | 84% | 1020.8 hPa | 0 mm | - | 42 W/m² | - |
| 1778076598 | 10° C | 80% | 1020.6 hPa | 0 mm | - | 88 W/m² | - |
| 1778075689 | 8.33° C | 87% | 1020.3 hPa | 0 mm | - | 88 W/m² | - |
| 1778074475 | 5.56° C | 93% | 1020.2 hPa | 0 mm | - | 50 W/m² | - |
| 1778072354 | 5° C | 92% | 1019.7 hPa | 0 mm | - | 6 W/m² | - |
* Rain latest hour (hover to see other rain measurements)
** Current wind speed in m/s (hover to see current wind gust speed)